DECAYED

STARLINK-31803, 59649 (Decayed)

Orbit data source: Space-Track

STARLINK-31803, 59649 was a payload satellite owned by SpaceX/Seattle (US) in LEO that was launched on Fri, 03 May 2024 UTC via an FALCON 9 launch vehicle from the Air Force Eastern Test Range (AFETR). Payload-class satellites include a variety of spacecraft equipped with specific instruments for various scientific and technological missions. These include communications satellites like Starlink; space stations such as the ISS; scientific satellites like the Hubble; Earth observation satellites from companies like Planet Labs, Umbra, and HawkEye 360; GPS; miniature CubeSats for education and research; and military/defense satellites.

Not visible in the next 10 days
Identifier
59649, 2024-082U
Orbit
Decayed
Country
Flag of USUS
Related business
Manufacturer
SpaceX/Seattle
Mission
Decayed Commercial Communications
Bus & Motor
STARLINK V2M, Unknown motor
Mass
730 kg wet, ~700 kg dry
Launch date (UTC)
2024-05-03 (2 years ago)
Launch vehicle
FALCON 9
Launch site
Air Force Eastern Test Range (AFETR)
Object type
Payload
Rocket body
Debris
Shape & HBR
Box + 2 Pan, 17.7 m
Radar Cross Section
33.884 m², Large (>1 m²)

Expand to show TLE details & history
Last TLE update: 1 year ago

TLE from 1 year ago
0 STARLINK-31803
1 59649U 24082U   25122.32936477  .06019998  67038-1  10944-1 0  9998
2 59649  42.9888  64.5919 0015516 214.9354 282.5467 16.04810068 57622
Epoch: 2025-05-02T07:54Z
TLE epoch observation values (Epoch: 2025-05-02T07:54:17.116Z)
Latitude
27.64278°
Longitude
-128.43045°
Altitude
259.08 km
Speed
7.757 km/s
True Right ascension
14h 02m 30s
True Declination
27° 29' 28"
Sunlit
Object was in full shadow at epoch
Visualization orbit readout
Latitude
Unknown
Longitude
Unknown
Altitude
Unknown
Speed
Unknown
Apparent Right ascension
Unknown
Apparent Declination
Unknown
Sunlit
N/A
Visualization observer readout
Local Sidereal Time
21:29:14
Azimuth
Unknown
Elevation
Unknown
Doppler factor
Unknown
Orbital elements
Apogee altitude
273.435 km
Perigee altitude
252.826 km
Semi-major axis
6,641.268 km
Eccentricity
0.00155
Inclination
42.9888°
RAAN
64.5919°
Arg. of periapsis
214.9354°
True anomaly
282.37307°
Mean anomaly
282.5467°
Eccentric anomaly
282.45989°
Mean motion
4.01021 °/min
Orbital period
89.77 mins
BSTAR
0.010944
Loading maneuver chart data...
Computing Atmospheric mass density...
Loading historical data...
Loading historical data...
Loading historical data...
Loading historical data...
Loading historical data...
Loading historical data...
Loading historical data...

Documentation

Showing up to 5 results
|